Regional Weather Roundup
Issued by NWS

Home | Current Version | Previous Version | Text Only | Print | Product List | Glossary On
Versions: 1 2 3 4 5 6 7 8 9 10 11 12 13 14 15 16 17 18 19 20 21 22 23 24 25 26 27 28 29 30 31 32 33 34 35 36 37 38 39 40 41 42 43 44 45 46 47 48 49 50
000
ASUS44 KFWD 270315
RWRTX
NORTH TEXAS HOURLY WEATHER ROUNDUP
NATIONAL WEATHER SERVICE FORT WORTH TX
1000 PM CDT MON JUN 26 2017

NOTE: "FAIR" INDICATES FEW OR NO CLOUDS BELOW 12,000 FEET WITH NO
SIGNIFICANT WEATHER AND/OR OBSTRUCTIONS TO VISIBILITY.

TXZ118-119-270400-
DALLAS/FORT WORTH METROPLEX

CITY           SKY/WX    TMP DP  RH WIND       PRES   REMARKS
DFW AIRPORT    CLOUDY    82  70  66 SE7       30.01S
DALLAS LOVE    CLOUDY    83  69  62 E7        30.02R
FTW MEACHAM    CLOUDY    81  71  71 SE7       30.02S
DAL-EXECUTIVE  MOCLDY    79  71  76 E5        30.02R
FTW-ALLIANCE   MOCLDY    79  71  76 SE6       30.03R
FTW-NAS-JRB    MOCLDY    81  70  69 E5        30.03R
FTW-SPINKS     PTCLDY    78  71  78 CALM      30.04S
ARLINGTON      CLOUDY    81  72  74 E3        30.03S
GRAND PRAIRIE  CLOUDY    80  69  68 CALM      30.04R
MESQUITE       CLOUDY    78  70  76 CALM      30.03R
LANCASTER      CLOUDY    78  72  82 CALM      30.03S
$$

TXZ091>094-102>105-117-120-121-131>134-270400-
NORTH CENTRAL TEXAS

CITY           SKY/WX    TMP DP  RH WIND       PRES   REMARKS
SHRMAN/DENISON PTCLDY    73  66  78 CALM      30.06S
GAINESVILLE    PTCLDY    74  67  79 E5        30.07R
BOWIE          PTCLDY    75  71  86 CALM      30.05S
BRIDGEPORT     PTCLDY    76  70  81 CALM      30.06R
DECATUR        PTCLDY    76  69  79 NE3       30.05S
DENTON         CLOUDY    80  69  69 E6        30.03R
MCKINNEY       PTCLDY    79  71  76 E3        30.03S
BONHAM         CLOUDY    73  66  78 E3        30.05R
GREENVILLE     PTCLDY    79  70  73 CALM      30.04S
ROCKWALL       CLOUDY    78  70  77 E5        30.03S
TERRELL        MOCLDY    79  70  74 E3        30.03R
WAXAHACHIE     CLOUDY    77  72  85 CALM      30.04R
CLEBURNE       CLOUDY    79  75  89 E6        30.04S
GRANBURY       CLOUDY    81  72  74 E3        30.04S
$$

TXZ083>090-098>101-113>116-127>130-139>142-154-155-270400-
WESTERN NORTH TEXAS

CITY           SKY/WX    TMP DP  RH WIND       PRES   REMARKS
WICHITA FALLS  CLEAR     76  69  79 SE7       30.03R
WF-KICKAPOO    CLEAR     77  70  78 E9        30.05S
VERNON         CLEAR     79  65  62 SE7       30.05R
ABILENE        CLOUDY    76  69  79 SE7       30.06R
ABILENE-DYESS  CLOUDY    74  70  85 CALM      30.05S
GRAHAM         PTCLDY    76  69  79 CALM      30.03R
BRECKENRIDGE   CLOUDY    79  69  72 SE5       30.04R
CISCO          PTCLDY    75  70  83 S8        30.06S
EASTLAND       MOCLDY    76  69  80 CALM      30.06R
RANGER         PTCLDY    75  69  81 S6        30.06R
MINERAL WELLS  PTCLDY    77  70  79 SE6       30.02R
STEPHENVILLE   CLOUDY    78  70  78 CALM      30.07S
COMANCHE       MOCLDY    73  70  92 SE3       30.06S
BROWNWOOD      PTCLDY    72  68  88 CALM      30.05F
COLEMAN        PTCLDY    71  67  87 E3        30.06F
$$

TXZ143>147-156>162-174-175-270400-
CENTRAL TEXAS

CITY           SKY/WX    TMP DP  RH WIND       PRES   REMARKS
WACO           CLOUDY    80  73  79 MISG      30.00F
WACO-TSTC      PTCLDY    81  73  78 E3        30.00F
WACO-MCGREGOR  CLOUDY    80  73  79 E6        30.01S
HILLSBORO      CLOUDY    78  73  84 E5        30.02S
CORSICANA      CLOUDY    81  73  76 E5        30.03R
MEXIA          CLOUDY    79  72  79 E5        30.02R
HEARNE         CLOUDY    75  75 100 SE7       30.03S
CAMERON        CLOUDY    80  72  76 S13       30.02R
TEMPLE         CLOUDY    80  72  76 E6        30.02R
KILLEEN        CLOUDY    82  71  69 SE8       30.02R
KILLEEN-SKYLRK CLOUDY    80  73  79 SE5       30.02S
FORT HOOD      CLOUDY    79  71  77 SE5       29.99S
HAMILTON       CLOUDY    76  75  96 CALM      30.05S
LAMPASAS         N/A     76  74  94 N3        30.03F
$$

TXZ095>097-106>112-122>126-135>138-148>153-164>167-270400-
EAST TEXAS

CITY           SKY/WX    TMP DP  RH WIND       PRES   REMARKS
PARIS            N/A     74  67  78 E6        30.05S
SULPHUR SPRNGS MOCLDY    77  68  75 E5        30.06S
MOUNT PLEASANT CLOUDY    76  65  68 CALM      30.06R
GILMER         CLOUDY    76  65  68 CALM      30.04S
MINEOLA        CLOUDY    75  72  88 E6        30.04R
TYLER          CLOUDY    80  69  69 E5        30.03R
LONGVIEW       CLOUDY    77  72  84 E6        30.03R
MARSHALL         N/A     73  68  86 CALM      30.06S
ATHENS         CLOUDY    77  70  78 CALM      30.02R
PALESTINE      HAZE      79  73  80 E3        30.03S VSB 3/4
JACKSONVILLE   CLOUDY    77  70  78 SE3       30.06R
HENDERSON      MOCLDY    77  69  77 CALM      30.05R
CENTER         PTCLDY    78  75  88 CALM      30.05S
NACOGDOCHES    CLOUDY    77  68  73 MISG      30.01S
LUFKIN         PTCLDY    76  72  87 CALM      30.02S
$$

SUPPLEMENTAL OBSERVATIONS (NWS FORT WORTH AREA)

CITY           SKY/WX    TMP DP  RH WIND       PRES   REMARKS
DENISON DAM      N/A     75  66  73 E2          N/A
CADDO GRASSLND   N/A     73  66  78 NE1         N/A
PAT MAYSE LAKE   N/A     73  64  73 N5          N/A
GREENVILLE       N/A     79  66  65 E6          N/A
CEDAR HILL       N/A     77  70  78 NE1         N/A
LBJ GRASSLAND    N/A     77  68  73 NE2         N/A
COMANCHE         N/A     73  70  88 SE5         N/A
MCGREGOR         N/A     81  72  74 SE3         N/A
LAKE LIMESTONE   N/A     79  70  73 S7G15       N/A
ATHENS           N/A     79  70  73 E1          N/A
$$

SUPPLEMENTAL OBSERVATIONS (NWS NORMAN AREA)

CITY           SKY/WX    TMP DP  RH WIND       PRES   REMARKS
GOODLETT         N/A     78  65  64 E8        30.04
CROWELL          N/A     78  69  73 SE6       30.06
KNOX CITY        N/A     80  66  63 SE7       30.06
SEYMOUR          N/A     79  68  70 SE9       30.05
MILLERS CREEK    N/A     77  70  78 E6          N/A
$$

SUPPLEMENTAL OBSERVATIONS (NWS SAN ANGELO AREA)

CITY           SKY/WX    TMP DP  RH WIND       PRES   REMARKS
WEINERT          N/A     79  70  74 SE9       30.06
HASKELL          N/A     79  66  64 SE3       30.06
THROCKMORTON     N/A     76  70  81 SE5       30.06
STAMFORD         N/A     79  69  72 SE6       30.06
CLYDE            N/A     75  69  80 SE8       30.09
HAMBY            N/A     77  68  73 SE6         N/A
IVIE RESERVOIR   N/A     70  64  83 E6          N/A
COLORADO BEND    N/A     72  68  88 W3          N/A
$$

SUPPLEMENTAL OBSERVATIONS (NWS SHREVEPORT AREA)

CITY           SKY/WX    TMP DP  RH WIND       PRES   REMARKS
CLARKSVILLE      N/A    N/A N/A N/A E2          N/A
TEXARKANA        N/A     72  66  83 CALM        N/A
LINDEN           N/A     73  66  78 CALM        N/A
CADDO LAKE       N/A     70  68  94 CALM        N/A
GILMER           N/A     75  64  69 CALM        N/A
HENDERSON        N/A     77  70  78 E2          N/A
LUFKIN           N/A     77  72  83 MISG        N/A
S SABINE NF      N/A     75  72  88 CALM        N/A
$$

SUPPLEMENTAL OBSERVATIONS ARE A COLLECTION OF AUTOMATED INSTRUMENTS
THAT ARE MAINTAINED BY A VARIETY OF FEDERAL AND STATE AGENCIES.
CERTAIN ELEMENTS...SUCH AS HUMIDITY VALUES AND SUSTAINED WIND
SPEEDS...MAY BE APPROXIMATED.





USA.gov is the U.S. government's official web portal to all federal, state and local government web resources and services.